#timestamp,LO_Frequency,Hit,StdDev 
1569351615.2,286047006.0,P
1569351635.1,286047005.2,N
1569351636.0,286047005.2,N
1569351655.8,286047004.3,N
1569351675.7,286047001.7,N
1569351695.5,286047002.5,N
1569351715.3,286047000.3,N
1569351735.2,286047000.6,N
1569351755.0,286047001.0,N
1569351755.9,286047001.0,N
1569351775.7,286047000.4,N
1569351795.6,286047000.7,N
1569351815.4,286046999.7,N
1569351835.3,286047001.4,N
1569351855.1,286046999.7,N
1569351875.8,286046999.8,N
1569351895.7,286047001.8,N
1569351915.5,286047001.3,N
1569351935.4,286047004.2,N
1569351955.2,286047003.5,N
1569351975.0,286047003.5,N
1569351975.9,286047003.5,N
1569351995.8,286047004.2,N
1569352015.6,286047003.8,N
1569352035.4,286047001.9,N
1569352055.3,286046999.7,N
1569352075.1,286046999.8,N
1569352095.9,286047002.6,N
1569352115.7,286047004.2,N
1569352135.5,286047004.1,N
1569352155.4,286047005.7,Y
1569352175.2,286046999.7,P
1569352195.1,286047011.9,P
1569352196.0,286046999.9,N
1569352215.8,286046998.7,N
1569352235.6,286046996.8,N
1569352255.5,286046997.3,N
1569352275.3,286046999.6,N
1569352295.2,286046996.7,N
1569352315.9,286046999.5,N
1569352335.7,286046998.7,N
1569352355.6,286047000.6,N
1569352375.4,286047001.1,N
1569352395.2,286046999.0,N
1569352415.1,286046996.6,N
1569352416.0,286046996.6,N
1569352435.8,286046998.8,N
1569352455.7,286046998.2,N
1569352475.5,286046998.2,N
1569352495.3,286047001.0,N
1569352515.2,286047002.5,N
1569352535.0,286047004.2,N
1569352535.9,286047004.2,N
1569352555.8,286047004.2,N
1569352575.6,286047002.6,N
1569352595.4,286047002.8,N
1569352615.3,286047001.1,N
1569352635.1,286047000.5,N
1569352655.9,286047000.9,N
1569352675.7,286046998.4,N
1569352695.5,286046998.4,N
1569352715.4,286046998.5,N
1569352735.2,286046996.9,N
1569352755.0,286046998.4,N
1569352756.0,286046998.4,N
1569352775.8,286047000.6,N
1569352795.6,286047004.4,N
1569352815.5,286047002.7,N
1569352835.3,286046999.7,N
1569352855.1,286047000.4,N
1569352875.9,286047002.0,N
1569352895.7,286047001.5,N
1569352915.6,286047003.1,N
1569352935.4,286047005.4,N
1569352955.2,286047004.5,N
1569352975.1,286047007.3,N
1569352976.0,286047007.3,N
1569352995.8,286047005.5,N
1569353015.7,286047005.7,N
1569353035.5,286047005.5,N
1569353055.3,286047005.6,N
1569353075.2,286047004.6,N
1569353095.0,286047005.0,N
1569353095.9,286047005.0,N
1569353115.8,286047007.6,N
1569353135.6,286047007.5,N
1569353155.4,286047004.7,N
1569353175.3,286047006.8,N
1569353195.1,286047007.6,N
1569353215.9,286047005.2,N
1569353235.7,286047003.0,N
1569353255.5,286047004.8,N
1569353275.4,286047005.9,N
1569353295.2,286047006.0,N
1569353315.0,286047004.3,N
1569353316.0,286047004.3,N
1569353335.8,286047004.0,N
1569353355.6,286047004.4,N
1569353375.5,286047004.0,N
1569353395.3,286047004.4,N
1569353415.1,286047004.3,N
1569353435.9,286047002.7,N
1569353455.7,286046999.8,N
1569353475.6,286046999.7,N
1569353495.4,286047002.0,N
1569353515.2,286046999.7,N
1569353535.1,286047001.9,N
1569353536.0,286047001.9,N
1569353555.8,286047004.3,N
1569353575.7,286047004.3,N
1569353595.5,286047000.2,N
1569353615.3,286047000.1,N
1569353635.2,286047002.7,N
1569353655.0,286047002.5,N
1569353655.9,286047002.5,N
1569353675.8,286047002.8,N
1569353695.6,286047000.3,N
1569353715.4,286047002.4,N
1569353735.3,286047002.7,N
1569353755.1,286046999.7,N
1569353775.8,286046999.8,N
1569353795.7,286047000.3,N
1569353815.5,286047002.7,N
1569353835.4,286047002.8,N
1569353855.2,286046999.7,N
1569353875.0,286046999.9,N
1569353875.9,286046999.9,N
1569353895.8,286047000.1,N
1569353915.6,286047002.7,N
1569353935.5,286047000.7,N
1569353955.3,286047000.7,N
1569353975.1,286047000.0,N
1569353995.9,286047000.9,N
1569354015.7,286047000.1,N
1569354035.5,286047001.0,N
1569354055.4,286046999.0,N
1569354075.2,286046996.5,N
1569354095.1,286046995.5,N
1569354096.0,286046995.5,N
1569354115.8,286046993.7,Y
1569354135.6,286046993.4,P
1569354155.5,286046993.8,N
1569354175.3,286046995.7,N
1569354195.2,286046993.8,N
1569354215.9,286046993.8,N
1569354235.7,286046994.5,N
1569354255.6,286046993.3,N
1569354275.4,286046993.8,N
1569354295.3,286046996.0,N
1569354315.1,286046996.3,N
1569354316.0,286046996.3,N
1569354335.8,286046994.6,N
1569354355.7,286046994.8,N
1569354375.5,286046995.8,N
1569354395.3,286046995.6,N
1569354415.2,286046997.9,N
1569354435.0,286046995.8,N
1569354435.9,286046995.8,N
1569354455.8,286046996.2,N
1569354475.6,286046993.3,Y
1569354495.4,286046999.9,P
1569354515.3,286047002.8,N
1569354535.1,286047000.5,N
1569354555.9,286047002.5,N
1569354575.7,286047002.3,N
1569354595.5,286047001.4,N
1569354615.4,286047001.4,N
1569354635.2,286047000.2,N
1569354655.0,286047002.6,N
1569354655.9,286047002.6,N
1569354675.8,286047001.6,N
1569354695.6,286047004.0,N
1569354715.5,286047003.4,N
1569354735.3,286047003.7,N
1569354755.1,286047002.0,N
1569354775.9,286047002.3,N
1569354795.7,286047000.4,N
1569354815.6,286047002.6,N
1569354835.4,286047000.8,N
1569354855.2,286047002.2,N
1569354875.1,286047004.0,N
1569354876.0,286047004.0,N
1569354895.8,286047002.4,N
1569354915.6,286047002.8,N
1569354935.5,286047002.4,N
1569354955.3,286047003.7,N
1569354975.2,286047003.2,N
1569354995.9,286047005.5,Y
1569355015.7,286047002.1,P
1569355035.6,286047000.1,N
1569355055.4,286047000.8,N
1569355075.3,286046998.1,N
1569355095.1,286047002.7,N
1569355096.0,286047002.7,N
1569355115.8,286046999.7,N
1569355135.7,286047001.1,N
1569355155.5,286047002.3,N
1569355175.4,286046999.9,N
1569355195.2,286047002.3,N
